• In Netherlands
  • List of Countries
  • For 7 days
  • Water Temperature
  • Satellite Maps
  • Weather Map
  • Weather Widgets
  • user-avatar
    Login

    Hourly Weather Solden

    Today, 26 May, Friday

    Time Temperature Precipitation Wind Pressure Humidity
    00:00 +2°C° 0 mm 1 mps 583 mmHg 94%
    01:00 +2°C° 0 mm 1 mps 583 mmHg 94%
    02:00 +1°C° 0 mm 1 mps 583 mmHg 93%
    03:00 +1°C° 0 mm 1 mps 583 mmHg 92%
    04:00 +1°C° 0 mm 1 mps 582 mmHg 91%
    05:00 +3°C° 0 mm 1 mps 583 mmHg 83%
    06:00 +5°C° 0 mm 1 mps 584 mmHg 75%
    07:00 +6°C° 0 mm 0 mps 586 mmHg 66%
    08:00 +9°C° 0 mm 1 mps 587 mmHg 59%
    09:00 +11°C° 0 mm 1 mps 587 mmHg 52%
    10:00 +13°C° 0 mm 1 mps 588 mmHg 44%
    11:00 +14°C° 0 mm 1 mps 589 mmHg 43%
    12:00 +15°C° 0 mm 2 mps 589 mmHg 42%
    13:00 +15°C° 0 mm 2 mps 589 mmHg 42%
    14:00 +15°C° 0 mm 2 mps 589 mmHg 44%
    15:00 +15°C° 0 mm 2 mps 588 mmHg 46%
    16:00 +14°C° 0 mm 2 mps 588 mmHg 49%
    17:00 +13°C° 0 mm 2 mps 587 mmHg 60%
    18:00 +11°C° 0 mm 1 mps 586 mmHg 70%
    19:00 +9°C° 0 mm 1 mps 586 mmHg 81%
    20:00 +7°C° 0 mm 1 mps 585 mmHg 86%
    21:00 +4°C° 0 mm 1 mps 584 mmHg 91%
    22:00 +1°C° 0 mm 0 mps 583 mmHg 96%
    23:00 +1°C° 0 mm 0 mps 583 mmHg 96%

    Tomorrow, 27 May, Saturday

    Time Temperature Precipitation Wind Pressure Humidity
    00:00 +1°C° 0 mm 0 mps 583 mmHg 96%
    01:00 0°C° 0 mm 0 mps 583 mmHg 95%
    02:00 0°C° 0 mm 0 mps 583 mmHg 95%
    03:00 0°C° 0 mm 0 mps 583 mmHg 95%
    04:00 0°C° 0 mm 0 mps 583 mmHg 94%
    05:00 +3°C° 0 mm 0 mps 584 mmHg 87%
    06:00 +6°C° 0 mm 0 mps 586 mmHg 79%
    07:00 +8°C° 0 mm 0 mps 587 mmHg 72%
    08:00 +10°C° 0 mm 0 mps 588 mmHg 63%
    09:00 +13°C° 0 mm 1 mps 589 mmHg 54%
    10:00 +15°C° 0 mm 1 mps 590 mmHg 45%
    11:00 +16°C° 0 mm 1 mps 590 mmHg 44%
    12:00 +16°C° 0 mm 2 mps 590 mmHg 43%
    13:00 +17°C° 0 mm 2 mps 591 mmHg 42%
    14:00 +16°C° 0.1 mm 2 mps 590 mmHg 46%
    15:00 +16°C° 0.1 mm 2 mps 590 mmHg 50%
    16:00 +16°C° 0.1 mm 2 mps 590 mmHg 53%
    17:00 +14°C° 0.3 mm 2 mps 589 mmHg 64%
    18:00 +12°C° 0.3 mm 2 mps 588 mmHg 74%
    19:00 +10°C° 0.3 mm 1 mps 588 mmHg 84%
    20:00 +8°C° 0.1 mm 1 mps 587 mmHg 88%
    21:00 +6°C° 0.1 mm 1 mps 586 mmHg 93%
    22:00 +3°C° 0.1 mm 0 mps 585 mmHg 97%
    23:00 +3°C° 0 mm 0 mps 586 mmHg 97%

    Day after tomorrow, 28 May, Sunday

    Time Temperature Precipitation Wind Pressure Humidity
    00:00 +5°C° 0 mm 1 mps 586 mmHg 97%
    01:00 +5°C° 0 mm 1 mps 586 mmHg 97%
    02:00 +5°C° 0 mm 1 mps 586 mmHg 97%
    03:00 +4°C° 0 mm 1 mps 586 mmHg 97%
    04:00 +4°C° 0 mm 1 mps 586 mmHg 97%
    05:00 +5°C° 0 mm 0 mps 587 mmHg 93%
    06:00 +7°C° 0 mm 0 mps 588 mmHg 88%
    07:00 +8°C° 0 mm 0 mps 589 mmHg 83%
    08:00 +10°C° 0 mm 0 mps 590 mmHg 73%
    09:00 +13°C° 0 mm 1 mps 591 mmHg 62%
    10:00 +15°C° 0 mm 1 mps 592 mmHg 51%
    11:00 +16°C° 0 mm 1 mps 592 mmHg 49%
    12:00 +18°C° 0 mm 1 mps 592 mmHg 47%
    13:00 +18°C° 0 mm 2 mps 592 mmHg 44%
    14:00 +17°C° 0.2 mm 2 mps 592 mmHg 49%
    15:00 +16°C° 0.2 mm 2 mps 591 mmHg 53%
    16:00 +16°C° 0.2 mm 2 mps 591 mmHg 57%
    17:00 +14°C° 0.3 mm 2 mps 590 mmHg 67%
    18:00 +13°C° 0.3 mm 1 mps 589 mmHg 76%
    19:00 +11°C° 0.3 mm 1 mps 589 mmHg 86%
    20:00 +9°C° 0.1 mm 1 mps 588 mmHg 90%
    21:00 +7°C° 0.1 mm 1 mps 587 mmHg 93%
    22:00 +4°C° 0.1 mm 0 mps 586 mmHg 97%
    23:00 +4°C° 0 mm 0 mps 586 mmHg 97%

    29 May, Monday

    Time Temperature Precipitation Wind Pressure Humidity
    00:00 +4°C° 0 mm 0 mps 586 mmHg 97%
    01:00 +4°C° 0 mm 0 mps 586 mmHg 98%
    02:00 +4°C° 0 mm 0 mps 586 mmHg 98%
    03:00 +4°C° 0 mm 0 mps 585 mmHg 97%
    04:00 +3°C° 0 mm 0 mps 585 mmHg 97%
    05:00 +5°C° 0 mm 0 mps 586 mmHg 92%
    06:00 +7°C° 0 mm 0 mps 587 mmHg 87%
    07:00 +10°C° 0 mm 0 mps 588 mmHg 82%
    08:00 +12°C° 0 mm 0 mps 589 mmHg 72%
    09:00 +14°C° 0 mm 0 mps 590 mmHg 62%
    10:00 +18°C° 0 mm 1 mps 591 mmHg 52%
    11:00 +18°C° 0.1 mm 1 mps 590 mmHg 50%
    12:00 +19°C° 0.1 mm 1 mps 590 mmHg 48%
    13:00 +18°C° 0.1 mm 2 mps 590 mmHg 46%
    14:00 +18°C° 0.3 mm 2 mps 590 mmHg 50%
    15:00 +17°C° 0.3 mm 2 mps 589 mmHg 54%
    16:00 +16°C° 0.3 mm 2 mps 589 mmHg 58%
    17:00 +15°C° 0.3 mm 1 mps 588 mmHg 67%
    18:00 +13°C° 0.3 mm 1 mps 587 mmHg 76%
    19:00 +12°C° 0.3 mm 1 mps 587 mmHg 86%
    20:00 +10°C° 0.2 mm 1 mps 586 mmHg 89%
    21:00 +8°C° 0.2 mm 1 mps 585 mmHg 93%
    22:00 +7°C° 0.2 mm 1 mps 584 mmHg 97%
    23:00 +6°C° 0.1 mm 1 mps 584 mmHg 97%

    30 May, Tuesday

    Time Temperature Precipitation Wind Pressure Humidity
    00:00 +6°C° 0.1 mm 1 mps 584 mmHg 97%
    01:00 +6°C° 0.1 mm 1 mps 584 mmHg 97%
    02:00 +5°C° 0 mm 1 mps 583 mmHg 97%
    03:00 +4°C° 0 mm 0 mps 583 mmHg 97%
    04:00 +4°C° 0 mm 0 mps 583 mmHg 97%
    05:00 +6°C° 0 mm 0 mps 584 mmHg 92%
    06:00 +8°C° 0 mm 0 mps 585 mmHg 87%
    07:00 +10°C° 0 mm 0 mps 586 mmHg 81%
    08:00 +12°C° 0.1 mm 0 mps 587 mmHg 73%
    09:00 +15°C° 0.1 mm 1 mps 588 mmHg 64%
    10:00 +18°C° 0.1 mm 1 mps 589 mmHg 55%
    11:00 +18°C° 0.5 mm 1 mps 589 mmHg 56%
    12:00 +18°C° 0.5 mm 1 mps 589 mmHg 57%
    13:00 +17°C° 0.5 mm 2 mps 589 mmHg 57%
    14:00 +17°C° 0.8 mm 2 mps 588 mmHg 61%
    15:00 +16°C° 0.8 mm 2 mps 588 mmHg 65%
    16:00 +15°C° 0.8 mm 2 mps 588 mmHg 69%
    17:00 +14°C° 0.7 mm 1 mps 587 mmHg 76%
    18:00 +13°C° 0.7 mm 1 mps 587 mmHg 82%
    19:00 +12°C° 0.7 mm 1 mps 586 mmHg 89%
    20:00 +10°C° 0.3 mm 1 mps 586 mmHg 92%
    21:00 +7°C° 0.3 mm 0 mps 585 mmHg 95%
    22:00 +6°C° 0.3 mm 0 mps 585 mmHg 98%
    23:00 +5°C° 0 mm 0 mps 585 mmHg 98%

    31 May, Wednesday

    Time Temperature Precipitation Wind Pressure Humidity
    00:00 +5°C° 0 mm 0 mps 585 mmHg 98%
    01:00 +5°C° 0 mm 0 mps 585 mmHg 98%
    02:00 +6°C° 0 mm 1 mps 585 mmHg 97%
    03:00 +6°C° 0 mm 1 mps 585 mmHg 97%
    04:00 +6°C° 0 mm 1 mps 585 mmHg 97%
    05:00 +7°C° 0 mm 1 mps 586 mmHg 93%
    06:00 +9°C° 0 mm 1 mps 587 mmHg 90%
    07:00 +10°C° 0 mm 0 mps 588 mmHg 86%
    08:00 +12°C° 0 mm 1 mps 588 mmHg 78%
    09:00 +14°C° 0 mm 1 mps 589 mmHg 70%
    10:00 +15°C° 0 mm 1 mps 590 mmHg 62%
    11:00 +16°C° 0.2 mm 1 mps 590 mmHg 59%
    12:00 +18°C° 0.2 mm 1 mps 590 mmHg 56%
    13:00 +17°C° 0.2 mm 2 mps 590 mmHg 53%
    14:00 +17°C° 0.5 mm 2 mps 590 mmHg 56%
    15:00 +16°C° 0.5 mm 2 mps 590 mmHg 60%
    16:00 +16°C° 0.5 mm 2 mps 589 mmHg 64%
    17:00 +14°C° 0.5 mm 1 mps 589 mmHg 72%
    18:00 +13°C° 0.5 mm 1 mps 588 mmHg 79%
    19:00 +12°C° 0.5 mm 1 mps 588 mmHg 87%
    20:00 +10°C° 0.1 mm 1 mps 587 mmHg 90%
    21:00 +8°C° 0.1 mm 1 mps 586 mmHg 93%
    22:00 +6°C° 0.1 mm 1 mps 586 mmHg 96%
    23:00 +6°C° 0 mm 1 mps 586 mmHg 97%
    Show more